SCP
0 0 0 0 0 0 0 0 0 0 0 0 0 0 0 0 0 0 0 0 0 0 0 0 0 0 0 0 0 0 0 0 0 0 0 0 0 0 0 0 0 0 0
0 0 0 0 0 0 0 0 0 0 0 0 0 0 0 0 0 0 0 0 0 0 0 0 0 0 0 0 0 0 0 0 0 0 0 0 0 0 0 0 0 0 0
0 0 0 0 0 0 0 0 0 0 0 0 0 0 0 0 0 0 0 0 0 0 0 0 0 0 0 0 0 0 0 0 0 0 0 0 0 0 0 0 0 0 0
0 0 0 0 0 0 0 0 0 0 0 0 0 0 0 0 0 0 0 0 0 0 0 0 0 0 0 0 0 0 0 0 0 0 0 0 0 0 0 0 0 0 0
0 0 0 0 0 0 0 0 0 0 0 0 0 0 0 0 0 0 0 0 0 0 0 0 0 0 0 0 0 0 0 0 0 0 0 0 0 0 0 0 0 0 0
0 0 0 0 0 0 0 0 0 0 0 0 0 0 0 0 0 0 0 0 0 0 0 0 0 0 0 0 0 0 0 0 0 0 0 0 0 0 0 0 0 0 0
0 0 0 0 0 0 0 0 0 0 0 0 0 0 0 0 0 0 0 0 0 0 0 0 0 0 0 0 0 0 0 0 0 0 0 0 0 0 0 0 0 0 0
0 0 0 0 0 0 0 0 0 0 0 0 0 0 0 0 0 0 0 0 0 0 0 0 0 0 0 0 0 0 0 0 0 0 0 0 0 0 0 0 0 0 0
0 0 0 0 0 0 0 0 0 0 0 0 0 0 0 0 0 0 0 0 0 0 0 0 0 0 0 0 0 0 0 0 0 0 0 0 0 0 0 0 0 0 0
0 0 0 -0 0 0 0 0 1 1 0 0 0 0 0 0 0 0 -0 0 0 0 0 0 0 0 0 0 0 0 0 0 0 0 0 0 0 0 0 0 0 0 0
0 0 0 0 0 0 0 0 0 0 0 0 0 0 0 0 0 0 0 0 0 0 0 0 0 0 0 0 0 0 0 0 0 0 0 0 0 0 0 0 0 0 0
0 0 0 0 0 0 0 0 0 0 0 0 0 0 0 0 0 0 0 0 0 0 0 0 0 0 0 0 0 0 0 0 0 0 0 0 0 0 0 0 0 0 0
0 0 0 0 0 0 0 0 0 0 0 0 0 0 0 0 0 0 0 0 0 0 0 0 0 0 0 0 0 0 0 0 0 0 0 0 0 0 0 0 0 0 0
0 0 0 0 0 0 0 0 0 0 0 0 0 0 0 0 0 0 0 0 0 0 0 0 0 0 0 0 0 0 0 0 0 0 0 0 0 0 0 0 0 0 0
0 0 0 0 0 0 0 0 0 0 0 0 0 0 0 0 0 0 0 0 0 0 0 0 0 0 0 0 0 0 0 0 0 0 0 0 0 0 0 0 0 0 0
0 0 0 0 0 0 0 0 0 0 0 0 0 0 0 0 0 0 0 0 0 0 0 0 0 0 0 0 0 0 0 0 0 0 0 0 0 0 0 0 0 0 0
0 0 0 0 0 0 0 0 0 0 0 0 0 0 0 0 0 0 0 0 0 0 0 0 0 0 0 0 0 0 0 0 0 0 0 0 0 0 0 0 0 0 0
0 0 0 0 0 0 0 0 0 0 0 0 0 0 0 0 0 0 0 0 0 0 0 0 0 0 0 0 0 0 0 0 0 0 0 0 0 0 0 0 0 0 0
0 0 0 0 0 0 0 0 0 0 0 0 0 0 0 0 0 0 0 0 0 0 0 0 0 0 0 0 0 0 0 0 0 0 0 0 0 0 0 0 0 0 0
0 0 0 0 0 0 0 0 0 0 0 0 0 0 0 0 0 0 0 0 0 0 0 0 0 0 0 0 0 0 0 0 0 0 0 0 0 0 0 0 0 0 0
0 0 0 0 0 0 0 0 0 0 0 0 0 0 0 0 0 0 0 0 0 0 0 0 0 0 0 0 0 0 0 0 0 0 0 0 0 0 0 0 0 0 0
0 0 0 0 0 0 0 0 0 0 0 0 0 0 0 0 0 0 0 0 0 0 0 0 0 0 0 0 0 0 0 0 0 0 0 0 0 0 0 0 0 0 0
0 0 0 0 0 0 0 0 0 0 0 0 0 0 0 0 0 0 0 0 0 0 0 0 0 0 0 0 0 0 0 0 0 0 0 0 0 0 0 0 0 0 0
0 0 0 0 0 0 0 0 0 0 0 0 0 0 0 0 0 0 0 0 0 0 0 0 0 0 0 0 0 0 0 0 0 0 0 0 0 0 0 0 0 0 0
0 0 0 0 0 0 0 0 0 0 0 0 0 0 0 0 0 0 0 0 0 0 0 0 0 0 0 0 0 0 0 0 0 0 0 0 0 0 0 0 0 0 0
0 0 0 0 0 0 0 0 0 0 0 0 0 0 0 0 0 0 0 0 0 0 0 0 0 0 0 0 0 0 0 0 0 0 0 0 0 0 0 0 0 0 0
Wind_Speed_500mb
31 32 32 31 30 29 28 27 25 23 21 17 17 14 12 12 11 10 10 12 10 12 18 23 18 20 18 23 25 25 22 25 23 21 19 18 16 16 14 11 10 9 7
27 29 29 29 28 29 30 28 23 21 20 19 17 16 14 13 12 12 12 16 21 20 24 26 23 21 23 24 25 24 25 26 21 19 19 19 20 17 16 14 10 9 8
23 24 25 26 27 29 31 31 30 27 22 19 17 16 15 14 15 16 16 17 19 27 24 25 22 23 26 26 26 21 24 21 18 18 19 19 19 21 21 18 15 10 11
29 29 27 29 27 30 31 32 29 26 22 19 17 16 13 15 16 17 22 22 22 26 29 30 25 24 26 25 22 22 24 25 21 19 20 22 21 21 24 23 23 15 13
33 33 30 28 31 34 36 34 32 27 23 21 19 17 18 16 19 20 21 26 30 39 31 33 30 26 21 21 20 22 24 27 26 24 23 23 24 22 22 29 28 23 16
36 37 36 32 33 37 38 38 33 31 26 24 20 21 22 20 20 21 25 24 25 28 28 24 21 23 20 18 22 21 27 25 25 26 27 21 22 24 22 24 26 34 25
36 47 51 37 40 40 41 40 37 33 34 27 22 20 19 22 26 26 16 21 25 22 22 21 16 20 25 23 23 23 25 24 26 27 27 25 20 22 25 27 27 25 37
54 47 44 51 53 51 43 44 45 42 36 33 23 16 22 14 17 12 26 17 20 18 21 23 21 26 24 26 24 22 27 28 28 30 30 26 23 22 20 24 27 29 27
67 62 59 57 61 65 56 50 51 51 42 39 29 20 12 11 12 20 23 23 20 18 20 22 25 28 30 28 25 29 30 30 28 30 30 28 22 20 19 22 23 27 33
49 59 61 76 74 66 62 54 55 55 45 39 30 28 29 22 15 17 17 22 22 23 25 27 28 31 32 33 32 30 32 37 27 26 19 23 25 22 19 25 26 31 36
32 63 57 37 45 41 47 68 56 55 42 38 34 28 20 24 35 28 25 17 22 24 29 31 35 36 38 42 39 42 38 36 32 30 30 34 34 29 21 21 27 30 34
18 24 38 49 52 43 37 38 41 49 39 33 34 32 27 23 29 29 27 27 26 25 29 31 37 41 41 44 45 41 41 41 38 34 35 40 32 27 14 6 10 10 18
42 42 43 55 51 51 44 46 48 41 31 30 27 29 29 34 37 38 34 30 27 23 25 32 38 39 42 44 45 41 46 45 41 37 36 38 33 26 21 22 21 12 6
49 49 49 50 43 42 35 38 39 28 25 26 28 33 39 37 38 42 41 30 27 27 28 31 35 39 40 46 49 47 42 48 45 42 37 35 34 26 25 28 30 33 27
44 49 52 47 41 42 40 39 44 43 41 41 35 40 38 38 43 43 42 41 32 28 29 29 33 29 37 45 48 48 49 47 43 44 37 32 33 28 27 28 21 19 16
36 44 50 49 45 42 46 47 41 37 36 35 39 39 41 42 40 42 43 41 39 41 42 28 38 33 39 42 40 46 42 44 43 38 34 38 36 31 28 26 24 24 23
32 37 43 52 48 43 41 41 39 36 35 40 39 40 42 40 40 43 43 41 38 42 51 50 49 43 45 45 39 41 44 38 36 36 36 34 31 29 25 25 29 28 19
28 31 44 57 48 50 47 43 41 40 40 39 41 40 39 42 43 43 43 42 41 40 42 46 45 38 36 37 40 41 34 36 36 35 38 40 29 27 24 22 24 26 21
27 30 43 50 51 46 42 40 41 41 40 40 40 39 41 43 43 41 40 38 39 38 41 44 42 40 39 40 40 40 40 39 38 34 33 34 29 27 24 22 21 24 25
31 30 34 39 40 41 42 43 43 41 43 41 40 39 42 42 41 37 38 38 36 36 38 41 43 39 41 39 41 41 42 39 35 34 36 34 28 27 28 24 24 23 23
37 38 41 45 44 44 44 45 44 43 40 40 38 39 39 40 37 36 35 34 33 33 36 36 36 38 41 42 41 40 39 35 34 36 38 33 30 28 27 26 25 25 26
43 47 46 48 48 48 47 46 43 41 40 40 40 41 40 40 35 29 27 28 31 34 34 37 38 41 40 38 34 34 32 31 32 36 33 33 29 28 26 25 23 22 25
47 49 53 52 54 54 51 47 45 44 45 43 41 39 38 36 32 28 27 29 30 33 36 39 36 32 31 29 30 31 33 33 31 27 18 27 26 27 23 21 19 16 15
52 52 51 49 51 53 51 48 47 46 43 39 37 36 36 33 30 26 27 29 30 33 33 34 33 33 33 32 31 29 31 34 30 26 25 23 22 23 20 18 16 13 12
54 53 52 50 51 51 51 48 46 43 42 41 40 37 35 33 28 26 28 31 33 34 30 28 28 31 34 37 37 30 31 30 29 27 26 25 21 21 20 19 18 14 16
53 57 52 51 51 49 49 49 48 47 45 44 41 38 36 32 32 32 33 31 33 32 26 21 19 19 20 22 25 27 28 28 28 20 23 25 19 21 16 23 20 19 19
Wind_Direction_500mb
194 198 201 205 209 213 214 216 215 218 215 216 212 216 228 239 241 245 258 279 292 288 292 298 295 300 297 307 316 315 324 334 321 312 306 306 309 316 315 326 329 317 294
203 205 212 215 220 223 222 219 219 216 218 220 223 227 234 246 244 260 270 278 282 296 287 289 292 282 285 286 295 301 316 316 312 301 288 286 280 278 295 298 302 308 297
214 219 219 223 230 231 226 223 219 219 219 222 227 231 239 243 258 268 279 278 282 295 295 302 288 285 287 280 277 280 304 314 304 300 297 292 289 273 271 283 289 283 281
227 231 231 231 237 230 227 222 218 217 218 221 226 235 234 253 266 272 277 283 284 282 292 289 288 281 271 274 264 274 310 323 317 310 298 290 282 271 265 265 278 279 276
229 225 229 235 238 235 231 226 220 216 217 216 218 227 243 266 272 281 284 287 288 293 285 283 283 275 254 258 262 286 312 319 315 316 308 293 280 271 262 253 254 259 267
232 231 227 232 240 238 233 227 221 221 212 216 224 240 260 265 271 277 282 293 292 298 294 285 278 253 237 245 267 283 303 313 313 317 315 301 281 269 260 255 261 250 247
246 238 233 225 234 241 237 228 222 215 208 220 232 252 261 264 268 274 278 295 293 299 298 287 248 240 237 241 254 278 291 305 308 316 323 315 298 277 263 259 255 256 248
253 244 248 248 234 239 234 226 219 215 217 221 216 232 268 261 274 244 288 293 293 282 290 287 254 237 244 250 258 281 292 302 306 308 315 313 292 285 276 261 252 247 246
253 251 255 267 254 236 234 230 225 220 220 221 216 227 245 248 257 263 290 291 288 267 272 276 257 247 246 249 260 284 292 300 300 310 318 319 306 288 283 277 258 249 247
255 253 263 290 270 249 240 230 226 224 222 218 221 231 243 261 275 288 288 293 278 271 275 266 259 257 257 259 264 266 289 284 290 303 314 312 311 308 311 307 291 258 232
268 254 264 274 263 256 249 241 233 226 217 221 220 238 248 279 272 255 273 268 286 273 267 265 258 258 261 269 261 270 269 276 282 284 287 294 305 309 312 322 306 260 247
285 243 252 257 256 255 257 260 248 218 212 232 246 256 267 274 271 265 264 277 270 274 272 264 255 257 267 268 268 271 275 271 274 278 283 289 300 312 290 320 7 322 248
237 229 234 243 253 251 254 250 241 223 229 243 248 253 262 261 261 262 261 265 269 269 277 267 264 262 262 264 265 266 269 270 268 273 279 286 295 303 279 230 248 260 250
244 241 241 243 250 240 239 231 227 228 221 230 234 251 256 260 267 273 274 269 267 265 260 257 273 271 264 263 261 264 265 265 263 269 273 289 291 294 281 251 247 253 249
245 242 236 234 238 227 223 217 215 243 235 229 232 249 256 266 273 275 276 272 262 267 269 267 272 280 277 268 262 264 265 266 263 268 261 284 291 286 280 256 250 268 269
244 239 232 229 233 227 231 229 229 220 220 234 240 246 258 266 270 273 273 270 262 257 261 262 268 276 274 273 263 266 264 261 265 266 268 295 288 279 272 252 244 258 266
249 241 228 219 219 218 219 222 226 227 232 239 243 257 263 267 271 271 269 267 261 253 256 265 272 274 274 278 253 268 263 261 256 261 273 293 282 273 269 258 245 254 258
250 234 221 214 223 225 228 226 223 229 238 243 252 259 266 270 269 268 267 265 260 256 262 268 269 270 269 264 263 252 251 251 252 261 278 290 267 261 256 258 250 248 253
254 235 222 223 225 227 224 228 233 239 244 251 257 264 266 267 267 263 261 262 262 258 258 264 268 267 267 266 265 257 253 251 256 265 280 279 260 252 252 253 255 250 246
251 242 229 218 219 227 232 237 239 243 247 251 257 261 262 263 261 259 259 262 257 254 259 262 265 269 268 264 257 254 252 251 254 266 276 267 256 254 261 261 254 252 247
252 246 239 240 240 238 235 234 237 243 248 252 257 261 262 264 265 266 267 254 248 250 251 252 259 260 261 260 259 253 246 251 259 267 269 250 250 256 258 258 254 248 247
245 243 243 243 241 240 240 243 244 246 251 257 260 261 265 268 267 258 250 246 244 245 249 254 256 259 262 259 248 244 245 249 258 264 247 249 248 252 255 257 257 251 246
250 247 244 241 246 248 246 243 244 247 248 248 253 260 264 255 243 244 244 244 245 248 248 252 256 255 252 248 245 245 244 248 248 248 242 243 245 249 249 250 251 246 236
251 248 247 245 243 246 243 241 244 246 249 253 255 254 252 248 247 243 245 247 246 247 250 254 251 243 244 245 245 241 239 240 241 236 239 243 245 244 240 236 236 226 221
256 251 250 247 244 243 245 247 251 253 252 249 250 254 253 244 240 240 245 251 253 257 249 245 246 244 238 237 237 233 232 231 231 234 235 232 233 231 226 225 230 227 227
261 248 244 243 242 243 247 250 252 253 250 248 253 252 248 239 233 240 245 244 247 244 239 236 236 234 232 228 224 224 223 225 228 237 229 221 221 211 220 226 228 229 225
Wind_Speed_850mb
31 32 32 31 30 29 28 27 25 23 21 17 17 14 12 12 11 10 10 12 10 12 18 23 18 20 18 23 25 25 22 25 23 21 19 18 16 16 14 11 10 9 7
27 29 29 29 28 29 30 28 23 21 20 19 17 16 14 13 12 12 12 16 21 20 24 26 23 21 23 24 25 24 25 26 21 19 19 19 20 17 16 14 10 9 8
23 24 25 26 27 29 31 31 30 27 22 19 17 16 15 14 15 16 16 17 19 27 24 25 22 23 26 26 26 21 24 21 18 18 19 19 19 21 21 18 15 10 11
29 29 27 29 27 30 31 32 29 26 22 19 17 16 13 15 16 17 22 22 22 26 29 30 25 24 26 25 22 22 24 25 21 19 20 22 21 21 24 23 23 15 13
33 33 30 28 31 34 36 34 32 27 23 21 19 17 18 16 19 20 21 26 30 39 31 33 30 26 21 21 20 22 24 27 26 24 23 23 24 22 22 29 28 23 16
36 37 36 32 33 37 38 38 33 31 26 24 20 21 22 20 20 21 25 24 25 28 28 24 21 23 20 18 22 21 27 25 25 26 27 21 22 24 22 24 26 34 25
36 47 51 37 40 40 41 40 37 33 34 27 22 20 19 22 26 26 16 21 25 22 22 21 16 20 25 23 23 23 25 24 26 27 27 25 20 22 25 27 27 25 37
54 47 44 51 53 51 43 44 45 42 36 33 23 16 22 14 17 12 26 17 20 18 21 23 21 26 24 26 24 22 27 28 28 30 30 26 23 22 20 24 27 29 27
67 62 59 57 61 65 56 50 51 51 42 39 29 20 12 11 12 20 23 23 20 18 20 22 25 28 30 28 25 29 30 30 28 30 30 28 22 20 19 22 23 27 33
49 59 61 76 74 66 62 54 55 55 45 39 30 28 29 22 15 17 17 22 22 23 25 27 28 31 32 33 32 30 32 37 27 26 19 23 25 22 19 25 26 31 36
32 63 57 37 45 41 47 68 56 55 42 38 34 28 20 24 35 28 25 17 22 24 29 31 35 36 38 42 39 42 38 36 32 30 30 34 34 29 21 21 27 30 34
18 24 38 49 52 43 37 38 41 49 39 33 34 32 27 23 29 29 27 27 26 25 29 31 37 41 41 44 45 41 41 41 38 34 35 40 32 27 14 6 10 10 18
42 42 43 55 51 51 44 46 48 41 31 30 27 29 29 34 37 38 34 30 27 23 25 32 38 39 42 44 45 41 46 45 41 37 36 38 33 26 21 22 21 12 6
49 49 49 50 43 42 35 38 39 28 25 26 28 33 39 37 38 42 41 30 27 27 28 31 35 39 40 46 49 47 42 48 45 42 37 35 34 26 25 28 30 33 27
44 49 52 47 41 42 40 39 44 43 41 41 35 40 38 38 43 43 42 41 32 28 29 29 33 29 37 45 48 48 49 47 43 44 37 32 33 28 27 28 21 19 16
36 44 50 49 45 42 46 47 41 37 36 35 39 39 41 42 40 42 43 41 39 41 42 28 38 33 39 42 40 46 42 44 43 38 34 38 36 31 28 26 24 24 23
32 37 43 52 48 43 41 41 39 36 35 40 39 40 42 40 40 43 43 41 38 42 51 50 49 43 45 45 39 41 44 38 36 36 36 34 31 29 25 25 29 28 19
28 31 44 57 48 50 47 43 41 40 40 39 41 40 39 42 43 43 43 42 41 40 42 46 45 38 36 37 40 41 34 36 36 35 38 40 29 27 24 22 24 26 21
27 30 43 50 51 46 42 40 41 41 40 40 40 39 41 43 43 41 40 38 39 38 41 44 42 40 39 40 40 40 40 39 38 34 33 34 29 27 24 22 21 24 25
31 30 34 39 40 41 42 43 43 41 43 41 40 39 42 42 41 37 38 38 36 36 38 41 43 39 41 39 41 41 42 39 35 34 36 34 28 27 28 24 24 23 23
37 38 41 45 44 44 44 45 44 43 40 40 38 39 39 40 37 36 35 34 33 33 36 36 36 38 41 42 41 40 39 35 34 36 38 33 30 28 27 26 25 25 26
43 47 46 48 48 48 47 46 43 41 40 40 40 41 40 40 35 29 27 28 31 34 34 37 38 41 40 38 34 34 32 31 32 36 33 33 29 28 26 25 23 22 25
47 49 53 52 54 54 51 47 45 44 45 43 41 39 38 36 32 28 27 29 30 33 36 39 36 32 31 29 30 31 33 33 31 27 18 27 26 27 23 21 19 16 15
52 52 51 49 51 53 51 48 47 46 43 39 37 36 36 33 30 26 27 29 30 33 33 34 33 33 33 32 31 29 31 34 30 26 25 23 22 23 20 18 16 13 12
54 53 52 50 51 51 51 48 46 43 42 41 40 37 35 33 28 26 28 31 33 34 30 28 28 31 34 37 37 30 31 30 29 27 26 25 21 21 20 19 18 14 16
53 57 52 51 51 49 49 49 48 47 45 44 41 38 36 32 32 32 33 31 33 32 26 21 19 19 20 22 25 27 28 28 28 20 23 25 19 21 16 23 20 19 19
Wind_Direction_850mb
194 198 201 205 209 213 214 216 215 218 215 216 212 216 228 239 241 245 258 279 292 288 292 298 295 300 297 307 316 315 324 334 321 312 306 306 309 316 315 326 329 317 294
203 205 212 215 220 223 222 219 219 216 218 220 223 227 234 246 244 260 270 278 282 296 287 289 292 282 285 286 295 301 316 316 312 301 288 286 280 278 295 298 302 308 297
214 219 219 223 230 231 226 223 219 219 219 222 227 231 239 243 258 268 279 278 282 295 295 302 288 285 287 280 277 280 304 314 304 300 297 292 289 273 271 283 289 283 281
227 231 231 231 237 230 227 222 218 217 218 221 226 235 234 253 266 272 277 283 284 282 292 289 288 281 271 274 264 274 310 323 317 310 298 290 282 271 265 265 278 279 276
229 225 229 235 238 235 231 226 220 216 217 216 218 227 243 266 272 281 284 287 288 293 285 283 283 275 254 258 262 286 312 319 315 316 308 293 280 271 262 253 254 259 267
232 231 227 232 240 238 233 227 221 221 212 216 224 240 260 265 271 277 282 293 292 298 294 285 278 253 237 245 267 283 303 313 313 317 315 301 281 269 260 255 261 250 247
246 238 233 225 234 241 237 228 222 215 208 220 232 252 261 264 268 274 278 295 293 299 298 287 248 240 237 241 254 278 291 305 308 316 323 315 298 277 263 259 255 256 248
253 244 248 248 234 239 234 226 219 215 217 221 216 232 268 261 274 244 288 293 293 282 290 287 254 237 244 250 258 281 292 302 306 308 315 313 292 285 276 261 252 247 246
253 251 255 267 254 236 234 230 225 220 220 221 216 227 245 248 257 263 290 291 288 267 272 276 257 247 246 249 260 284 292 300 300 310 318 319 306 288 283 277 258 249 247
255 253 263 290 270 249 240 230 226 224 222 218 221 231 243 261 275 288 288 293 278 271 275 266 259 257 257 259 264 266 289 284 290 303 314 312 311 308 311 307 291 258 232
268 254 264 274 263 256 249 241 233 226 217 221 220 238 248 279 272 255 273 268 286 273 267 265 258 258 261 269 261 270 269 276 282 284 287 294 305 309 312 322 306 260 247
285 243 252 257 256 255 257 260 248 218 212 232 246 256 267 274 271 265 264 277 270 274 272 264 255 257 267 268 268 271 275 271 274 278 283 289 300 312 290 320 7 322 248
237 229 234 243 253 251 254 250 241 223 229 243 248 253 262 261 261 262 261 265 269 269 277 267 264 262 262 264 265 266 269 270 268 273 279 286 295 303 279 230 248 260 250
244 241 241 243 250 240 239 231 227 228 221 230 234 251 256 260 267 273 274 269 267 265 260 257 273 271 264 263 261 264 265 265 263 269 273 289 291 294 281 251 247 253 249
245 242 236 234 238 227 223 217 215 243 235 229 232 249 256 266 273 275 276 272 262 267 269 267 272 280 277 268 262 264 265 266 263 268 261 284 291 286 280 256 250 268 269
244 239 232 229 233 227 231 229 229 220 220 234 240 246 258 266 270 273 273 270 262 257 261 262 268 276 274 273 263 266 264 261 265 266 268 295 288 279 272 252 244 258 266
249 241 228 219 219 218 219 222 226 227 232 239 243 257 263 267 271 271 269 267 261 253 256 265 272 274 274 278 253 268 263 261 256 261 273 293 282 273 269 258 245 254 258
250 234 221 214 223 225 228 226 223 229 238 243 252 259 266 270 269 268 267 265 260 256 262 268 269 270 269 264 263 252 251 251 252 261 278 290 267 261 256 258 250 248 253
254 235 222 223 225 227 224 228 233 239 244 251 257 264 266 267 267 263 261 262 262 258 258 264 268 267 267 266 265 257 253 251 256 265 280 279 260 252 252 253 255 250 246
251 242 229 218 219 227 232 237 239 243 247 251 257 261 262 263 261 259 259 262 257 254 259 262 265 269 268 264 257 254 252 251 254 266 276 267 256 254 261 261 254 252 247
252 246 239 240 240 238 235 234 237 243 248 252 257 261 262 264 265 266 267 254 248 250 251 252 259 260 261 260 259 253 246 251 259 267 269 250 250 256 258 258 254 248 247
245 243 243 243 241 240 240 243 244 246 251 257 260 261 265 268 267 258 250 246 244 245 249 254 256 259 262 259 248 244 245 249 258 264 247 249 248 252 255 257 257 251 246
250 247 244 241 246 248 246 243 244 247 248 248 253 260 264 255 243 244 244 244 245 248 248 252 256 255 252 248 245 245 244 248 248 248 242 243 245 249 249 250 251 246 236
251 248 247 245 243 246 243 241 244 246 249 253 255 254 252 248 247 243 245 247 246 247 250 254 251 243 244 245 245 241 239 240 241 236 239 243 245 244 240 236 236 226 221
256 251 250 247 244 243 245 247 251 253 252 249 250 254 253 244 240 240 245 251 253 257 249 245 246 244 238 237 237 233 232 231 231 234 235 232 233 231 226 225 230 227 227
261 248 244 243 242 243 247 250 252 253 250 248 253 252 248 239 233 240 245 244 247 244 239 236 236 234 232 228 224 224 223 225 228 237 229 221 221 211 220 226 228 229 225